Duchifat 3
1 44854U 19089C   25086.73155491  .00064173  00000-0  16176-2 0  9992
2 44854  36.9455 102.2663 0005186 274.8779  85.1383 15.38800134291534
TO-108
1 44881U 19093C   25086.80235409  .00003243  00000-0  38228-3 0  9997
2 44881  97.7964 163.9930 0015247 112.2827 248.0007 14.85361098285126
FloripaSat 1
1 44885U 19093G   25086.80241342  .00015817  00000-0  13663-2 0  9999
2 44885  97.8181 174.3145 0012118  94.1916 266.0690 14.97256561285700
RS-44
1 44909U 19096E   25086.51786497  .00000054  00000-0  16280-3 0  9998
2 44909  82.5164 276.4961 0218473 108.6943 253.8008 12.79739740245214
UPMSat 2
1 46276U 20061E   25086.77284619  .00084936  00000-0  11141-2 0  9999
2 46276  97.2526 159.2080 0001777 154.5432 205.5912 15.58266823253931
SALSAT
1 46495U 20068K   25086.65753169  .00018223  00000-0  81817-3 0  9991
2 46495  97.8545  61.3758 0013918  64.1844 296.0824 15.21148778247285
CubeSX-Sirius-HSE
1 47951U 21022V   25086.83574565  .00191770  00000-0  20634-2 0  9999
2 47951  97.4265 355.8277 0007777 164.6828 195.4667 15.63070731222211
CubeSX-HSE
1 47952U 21022W   25086.86505277  .00184527  00000-0  19427-2 0  9997
2 47952  97.4276 356.0736 0008001 159.7550 200.4027 15.63650770222231
GRBAlpha
1 47959U 21022AD  25086.83263387  .00182868  00000-0  19488-2 0  9997
2 47959  97.4257 356.1788 0007679 163.8312 196.3193 15.63346992221051
Orbicraft-Zorkiy
1 47960U 21022AE  25086.87953341  .00668330  00000-0  23648-2 0  9995
2 47960  97.4204   0.2665 0008985 146.9471 213.2363 15.87428313221989
TUBIN
1 48900U 21059X   25086.87607316  .00071831  00000-0  11610-2 0  9998
2 48900  97.6697 250.5548 0004145 163.3672 196.7717 15.52603783208578
LEDSAT
1 49069U 21073D   25086.84751971  .00086578  00000-0  15208-2 0  9996
2 49069  97.3955 165.8614 0010311 345.5058  14.5897 15.50153186199979
CUTE
1 49263U 21088D   25086.60796949  .00028475  00000-0  63492-3 0  9997
2 49263  97.4575 160.8757 0010140 147.6332 212.5539 15.43490636193000
TeikyoSat 4
1 49396U 21102B   25086.67095973  .00005915  00000-0  39640-3 0  9999
2 49396  97.4195 127.7494 0013306  33.3500 326.8564 15.07171154185414
Z-Sat
1 49399U 21102E   25086.86096923  .00011196  00000-0  62588-3 0  9994
2 49399  97.3905 130.5933 0018225   5.0628 355.0785 15.13507744185826
KOSEN 1
1 49402U 21102H   25086.39675607  .00018823  00000-0  90213-3 0  9999
2 49402  97.3817 133.0233 0015448 344.0167  16.0578 15.18857882186025
HO-113
1 50466U 21131B   25086.86809044  .00001878  00000-0  60189-3 0  9990
2 50466  98.5087 176.5980 0004016  14.6496 345.4809 14.40671734170836
IRIS-A
1 51044U 22002BN  25086.78136988  .00198584  00000-0  17160-2 0  9993
2 51044  97.3334 163.3043 0001966 136.1411 224.0007 15.68593620178213
Foresail-1
1 52766U 22057AL  25086.64516072  .00148936  00000-0  13945-2 0  9999
2 52766  97.6021 231.1194 0006042 212.2622 147.8269 15.66741434158229
SNUGLITE 2
1 52899U 22065F   25086.35626745  .00004434  00000-0  87554-3 0  9994
2 52899  98.1548 229.1140 0007165 354.8147   5.2980 14.62908089145630
IO-117
1 53106U 22080B   25051.21822557 -.00000003  00000-0  00000+0 0  9995
2 53106  70.1434 106.3440 0008542  48.0089 312.1297  6.42557744 61200
UmKA 1 (RS40S)
1 57172U 23091G   25086.88867361  .00014423  00000-0  79270-3 0  9997
2 57172  97.5680 142.6781 0013983 224.0877 135.9240 15.14119726 96323
CubeBel-2 (EU11S)
1 57175U 23091K   25086.83012164  .00021440  00000-0  10740-2 0  9991
2 57175  97.5679 143.3583 0011936 233.0017 127.0124 15.17333726 96362
VERONIKA
1 58261U 23174F   25086.80777318  .00128486  00000-0  20834-2 0  9999
2 58261  97.4196 169.5884 0006238 294.9770  65.0834 15.52287821 77177
KAFASAT
1 58317U 23174BP  25086.84392384  .01581830  15345-2  27804-2 0  9992
2 58317  97.3990 174.6303 0011349 266.2220  93.7762 16.02300174 77535
ENSO
1 58470U 23185J   25086.85981361  .00080403  00000-0  15855-2 0  9996
2 58470  97.3813 160.0690 0006623 345.7375  14.3687 15.46885846 73600
EIRSAT-1
1 58472U 23185L   25086.88312638  .00109458  00000-0  17568-2 0  9991
2 58472  97.3792 161.0623 0005423 340.5565  19.5480 15.52649103 73672
SONATE-2
1 59112U 24043Q   25086.34082763  .00039099  00000-0  12466-2 0  9996
2 59112  97.5013 216.2496 0011331  21.7913 338.3809 15.32358261 58954
MO-122
1 60209U 24125G   25086.50015827  .00036991  00000-0  11631-2 0  9992
2 60209  97.2899 299.0677 0021099  46.2605 314.0379 15.32656786 40591
GRBBeta
1 60237U 24128C   25086.05228350  .00013311  00000-0  10108-2 0  9992
2 60237  61.9943 339.2483 0044865  41.5254 318.9230 15.01691324 39002
Curium One
1 60242U 24128H   25086.39724797  .00021591  00000-0  15498-2 0  9997
2 60242  61.9840 337.3103 0044815  37.1410 323.2768 15.03534007 39070
ROBUSTA-3A
1 60243U 24128J   25086.04627326  .00022539  00000-0  16364-2 0  9996
2 60243  61.9911 339.1316 0043037  34.6909 325.6975 15.03149529 39017
CatSat
1 60246U 24125J   25086.04329917  .00022107  00000-0  77684-3 0  9995
2 60246  97.2683 298.6101 0044031   1.8109 358.3283 15.28446531 38599
HYPERVIEW-1G (RS66S)
1 61772U 24199AP  25086.82276101  .00040760  00000-0  13296-2 0  9996
2 61772  97.3663 315.9736 0016524  96.9968 263.3154 15.31543091 65656
AO-123
1 61781U 24199AY  25086.82989071  .00017273  00000-0  65180-3 0  9996
2 61781  97.3671 315.5244 0018066  98.6149 261.7138 15.26942563 65620
ZIMSAT 2
1 61783U 24199BA  25086.87118548  .00061135  00000-0  18237-2 0  9992
2 61783  97.3651 316.2053 0017199  95.8952 264.4252 15.34279306 68822
POEM 4 (BGS ARPIT)
1 62461U 24253C   25085.83281235  .00952676  53307-3  10074-2 0  9997
2 62461  55.2086 201.7309 0003645 327.9873 172.1720 16.09817195 13647
HADES-R (SO-124)
1 62690U 25009CK  25086.19298857  .00075531  00000-0  32382-2 0  9990
2 62690  97.4141 167.6134 0001599 332.3992  27.7159 15.22438479 10809
HYDRA-T
1 62692U 25009CM  25086.18808739  .00077596  00000-0  33111-2 0  9991
2 62692  97.4140 167.6194 0001499 323.2700  36.8433 15.22588398 10803
Fram2Ham
1 90000U 25090A   25091.24166955 -.00012090  00000-0 -25444-3 0    65
2 90000  90.0015 341.9186 0001128  47.8434 312.3114 15.45593922    33
